Regional Weather Roundup
Issued by NWS Charleston, SC

Current Version | Previous Version | Graphics & Text | Print | Product List | Glossary On
Versions: 1 2 3 4 5 6 7 8 9 10 11 12 13 14 15 16 17 18 19 20 21 22 23 24 25 26 27 28 29 30 31 32 33 34 35 36 37 38 39 40 41 42 43 44 45 46 47 48 49 50
000 ASUS42 KCHS 302111 RWRCHS REGIONAL WEATHER ROUNDUP NATIONAL WEATHER SERVICE CHARLESTON SC 500 PM EDT MON MAR 30 2015 NOTE: "FAIR" INDICATES FEW OR NO CLOUDS BELOW 12,000 FEET WITH NO SIGNIFICANT WEATHER AND/OR OBSTRUCTIONS TO VISIBILITY. NOT ALL STATIONS ARE QUALITY CONTROLLED BY THE NATIONAL WEATHER SERVICE. USE DATA WITH CAUTION...ESPECIALLY DEWPOINT OBSERVATIONS. SCZ027-030-031-034>040-042>050-302200- ...SOUTHEAST SOUTH CAROLINA... CITY SKY/WX TMP DP RH WIND PRES REMARKS N CHARLESTON PTSUNNY 68 50 52 W16G23 30.04F WATERFRONT PRK N/A 68 N/A N/A W12G20 N/A MOUNT PLEASANT FAIR 70 52 52 W12G20 30.03F PINOPOLIS N/A 66 52 59 W18 29.97F MONCKS CORNER CLOUDY 70 50 49 W9 30.03F SUMMERVILLE FAIR 68 54 60 W9G20 30.05F BEAUFORT MCAS PTSUNNY 68 52 56 W14 30.07F BEAUFORT ARPT MOCLDY 70 54 56 W14G24 30.06F HILTON HEAD IS MOSUNNY 70 54 56 W7G18 30.08F WALTERBORO MOCLDY 66 52 59 W18 30.06F ALLENDALE MOCLDY 70 54 56 SW10G18 30.05F ...SOUTHERN MIDLANDS AND PEE DEE... CITY SKY/WX TMP DP RH WIND PRES REMARKS GEORGETOWN NOT AVBL KINGSTREE NOT AVBL ORANGEBURG MOSUNNY 68 50 52 W12 30.03F BARNWELL FAIR 72 54 53 SW16G22 30.04F AIKEN FAIR 70 45 40 W15G25 30.05F MANNING RAIN 64 28 25 W8G22 30.02F COLUMBIA MOSUNNY 71 47 42 W14 30.01F SUMTER MOSUNNY 69 48 48 W9 29.99F FLORENCE MOSUNNY 67 48 50 W13G22 30.00F MYRTLE BEACH MOSUNNY 70 46 43 W12 30.02F N MYRTLE BEACH MOSUNNY 66 47 50 W9G22 29.99F $$ GAZ063-065-086>088-099>101-113>116-118-119-134>141-150-302200- ...SOUTHEAST GEORGIA... CITY SKY/WX TMP DP RH WIND PRES REMARKS SAVANNAH ARPT CLOUDY 68 53 58 W17 30.09F HUNTER AAF PTSUNNY 71 56 59 W18G29 30.07F FORT STEWART PTSUNNY 68 55 62 W8G17 30.08F STATESBORO CLOUDY 66 56 69 W13G18 30.09F SYLVANIA CLOUDY 67 56 70 W8 30.09S CLAXTON CLOUDY 66 59 77 W5 30.10F ...CSRA...CENTRAL AND FAR SOUTHEAST GEORGIA... CITY SKY/WX TMP DP RH WIND PRES REMARKS THOMSON MOSUNNY 72 54 52 W6G17 30.09F AUGUSTA-BUSH MOSUNNY 70 51 51 W17G24 30.03F AUGUSTA-DANIEL MOSUNNY 70 50 49 W8 30.04F SWAINSBORO CLOUDY 68 50 52 W9G17 30.10F VIDALIA CLOUDY 66 59 77 W8 30.10F EASTMAN MOCLDY 71 60 68 W12G20 30.13F HAZLEHURST CLOUDY 68 59 73 CALM 30.10F ALMA CLOUDY 72 55 55 NW13 30.11F WAYCROSS CLOUDY 76 59 54 W13G18 30.11F JESUP CLOUDY 73 59 60 W7G16 30.11F BAXLEY CLOUDY 70 57 64 W8 30.11F BRUNSWICK CLOUDY 72 52 49 W13 30.12F SAINT SIMONS CLOUDY 71 53 52 SW8 30.11F $$ SCZ027-028-034-036>038-045-046-048>050-GAZ119-141-302200- ...LAKE AND SUPPLEMENTAL COASTAL OBSERVATIONS... STATION/POSITION TIME TEMP WIND PRES WAVE SWELL AIR SEA DIR/SP/G HT/PER HT/PER/DIR (UTC) (F) (DEG/KT/KT) (MB) (FT/S) (FT/S/D) UPR LAKE MARION NOT AVBL WINYAH BAY 1945 65 270/ 12 1016.0 LAKE MURRAY 2000 64 260/ 10/ 17 1016.3F ACE BASIN NERRS NOT AVBL FORT PULASKI 2000 66 59 270/ 14/ 17 1019.7F SAPELO ISLAND 2000 68 230/ 13 1020.0F $$ ANZ835-935-AMZ111-154-330-350-352-354-370-450-454-472-302200- ...C-MAN AND BUOY OBSERVATIONS... STATION/POSITION TIME TEMP WIND PRES WAVE SWELL AIR SEA DIR/SP/G HT/PER HT/PER/DIR (UTC) (F) (DEG/KT/KT) (MB) (FT/S) (FT/S/D) BUOY 41004 2050 65 68 250/ 23/ 29 1016.7F 8/ 7 BUOY 41008 2050 62 61 220/ 10/ 12 1019.4F 3/ 8 2/100/ 8 FOLLY BEACH CMAN 2100 67 260/ 11/ 15 1017.4F CAPERS NEARSHORE NOT AVBL FRIPP NEARSHORE 2000 61 230/ 16/ 19 1018.6F STATION/POSITION TIME TEMP WIND PRES WAVE SWELL AIR SEA DIR/SP/G HT/PER HT/PER/DIR (UTC) (F) (DEG/KT/KT) (MB) (FT/S) (FT/S/D) 5E ST. MARYS GA 2021 61 N/A 2/ 8 FRYING PAN BUOY 2050 63 64 240/ 21/ 27 1016.1F 9/ 7 BUOY 41025 NOT AVBL CAPE LOOKOUT NC 2100 59 240/ 15/ 20 1014.4F BUOY 41002 2050 63 68 240/ 19/ 25 1019.9F 6/10 3/ 30/10 BUOY 41010 2020 69 76 260/ 8/ 12 1023.0F ST AUGUSTINE FL 2100 64 63 140/ 12/ 13 1021.2F $$

USA.gov is the U.S. government's official web portal to all federal, state and local government web resources and services.